Time,TemperatureF,DewpointF,PressureIn,WindDirection,WindDirectionDegrees,WindSpeedMPH,WindSpeedGustMPH,Humidity,HourlyPrecipIn,Conditions,Clouds,dailyrainin,SoftwareType,DateUTC
2013-03-10 00:00:00,40.5,38.9,29.57,SSE,158,0.4,0.4,94,0.00,,,0.00,WUHU216HW,2013-03-09 23:00:00,
2013-03-10 00:05:00,40.5,38.9,29.57,SSE,158,0.0,0.4,94,0.00,,,0.00,WUHU216HW,2013-03-09 23:05:00,
2013-03-10 00:11:00,40.5,38.9,29.57,SSE,158,0.0,0.4,94,0.00,,,0.00,WUHU216HW,2013-03-09 23:11:00,
2013-03-10 00:16:00,40.5,38.9,29.57,SSE,158,0.0,0.0,94,0.00,,,0.00,WUHU216HW,2013-03-09 23:16:00,
2013-03-10 00:21:00,40.7,39.1,29.57,SSE,158,0.0,0.0,94,0.00,,,0.00,WUHU216HW,2013-03-09 23:21:00,
2013-03-10 00:26:00,40.7,39.1,29.57,SSE,158,0.0,0.0,94,0.00,,,0.00,WUHU216HW,2013-03-09 23:26:00,
2013-03-10 00:31:00,40.5,38.9,29.57,SSE,158,0.0,0.0,94,0.00,,,0.00,WUHU216HW,2013-03-09 23:31:00,
2013-03-10 00:36:00,40.5,38.9,29.57,SSE,158,0.0,0.7,94,0.00,,,0.00,WUHU216HW,2013-03-09 23:36:00,
2013-03-10 00:41:00,40.5,38.9,29.57,SSE,158,0.0,0.7,94,0.00,,,0.00,WUHU216HW,2013-03-09 23:41:00,
2013-03-10 00:46:00,40.3,38.7,29.57,SSE,158,0.0,0.2,94,0.00,,,0.00,WUHU216HW,2013-03-09 23:46:00,
2013-03-10 00:51:00,40.3,38.7,29.57,SSE,158,0.0,0.4,94,0.00,,,0.00,WUHU216HW,2013-03-09 23:51:00,
2013-03-10 00:56:00,40.3,38.7,29.57,SSE,158,0.0,0.4,94,0.00,,,0.00,WUHU216HW,2013-03-09 23:56:00,
2013-03-10 01:01:00,40.3,38.7,29.57,SSE,158,0.0,0.0,94,0.00,,,0.00,WUHU216HW,2013-03-10 00:01:00,
2013-03-10 01:06:00,40.3,38.4,29.57,SSE,158,0.0,0.0,93,0.00,,,0.00,WUHU216HW,2013-03-10 00:06:00,
2013-03-10 01:11:00,40.3,38.7,29.57,SSE,158,0.0,0.0,94,0.00,,,0.00,WUHU216HW,2013-03-10 00:11:00,
2013-03-10 01:16:00,40.3,38.7,29.57,SSE,158,0.0,0.0,94,0.00,,,0.00,WUHU216HW,2013-03-10 00:16:00,
2013-03-10 01:21:00,40.3,38.7,29.57,SSE,158,0.0,0.0,94,0.00,,,0.00,WUHU216HW,2013-03-10 00:21:00,
2013-03-10 01:26:00,40.5,38.9,29.57,SSE,158,0.0,0.0,94,0.00,,,0.00,WUHU216HW,2013-03-10 00:26:00,
2013-03-10 01:31:00,40.3,38.7,29.57,SSE,158,0.0,0.0,94,0.00,,,0.00,WUHU216HW,2013-03-10 00:31:00,
2013-03-10 01:36:00,40.3,38.7,29.57,SSE,158,0.0,0.0,94,0.00,,,0.00,WUHU216HW,2013-03-10 00:36:00,
2013-03-10 01:41:00,40.3,38.7,29.57,SSE,158,0.0,0.0,94,0.00,,,0.00,WUHU216HW,2013-03-10 00:41:00,
2013-03-10 01:46:00,40.3,38.7,29.56,SSE,158,0.0,0.0,94,0.00,,,0.00,WUHU216HW,2013-03-10 00:46:00,
2013-03-10 01:51:00,40.3,38.7,29.56,SSE,158,0.0,0.0,94,0.00,,,0.00,WUHU216HW,2013-03-10 00:51:00,
2013-03-10 01:56:00,40.5,38.9,29.56,SSE,158,0.0,0.0,94,0.00,,,0.00,WUHU216HW,2013-03-10 00:56:00,
2013-03-10 02:01:00,40.3,38.7,29.56,SSE,158,0.0,0.0,94,0.00,,,0.00,WUHU216HW,2013-03-10 01:01:00,
2013-03-10 02:06:00,40.5,38.9,29.56,SSE,158,0.0,0.0,94,0.00,,,0.00,WUHU216HW,2013-03-10 01:06:00,
2013-03-10 02:11:00,40.5,38.9,29.55,SSE,158,0.0,0.0,94,0.00,,,0.00,WUHU216HW,2013-03-10 01:11:00,
2013-03-10 02:16:00,40.5,38.9,29.55,SSE,158,0.0,0.0,94,0.00,,,0.00,WUHU216HW,2013-03-10 01:16:00,
2013-03-10 02:21:00,40.5,38.9,29.55,South,180,0.0,0.2,94,0.00,,,0.00,WUHU216HW,2013-03-10 01:21:00,
2013-03-10 02:26:00,40.5,38.9,29.55,South,180,0.0,0.2,94,0.00,,,0.00,WUHU216HW,2013-03-10 01:26:00,
2013-03-10 02:31:00,40.3,38.7,29.55,South,180,0.0,0.0,94,0.00,,,0.00,WUHU216HW,2013-03-10 01:31:00,
2013-03-10 02:36:00,40.3,38.7,29.55,South,180,0.0,0.0,94,0.00,,,0.00,WUHU216HW,2013-03-10 01:36:00,
2013-03-10 02:41:00,40.3,38.7,29.55,South,180,0.0,0.4,94,0.00,,,0.00,WUHU216HW,2013-03-10 01:41:00,
2013-03-10 02:46:00,40.1,38.3,29.55,South,180,0.2,0.4,93,0.00,,,0.00,WUHU216HW,2013-03-10 01:46:00,
2013-03-10 02:51:00,40.1,38.3,29.55,South,180,0.0,0.4,93,0.00,,,0.00,WUHU216HW,2013-03-10 01:51:00,
2013-03-10 02:56:00,40.1,38.3,29.54,South,180,0.0,0.4,93,0.00,,,0.00,WUHU216HW,2013-03-10 01:56:00,
2013-03-10 03:01:00,40.1,38.3,29.54,South,180,0.0,0.4,93,0.00,,,0.00,WUHU216HW,2013-03-10 02:01:00,
2013-03-10 03:06:00,40.0,38.1,29.54,South,180,0.0,0.4,93,0.00,,,0.00,WUHU216HW,2013-03-10 02:06:00,
2013-03-10 03:11:00,40.0,38.1,29.55,South,180,0.0,0.0,93,0.00,,,0.00,WUHU216HW,2013-03-10 02:11:00,
2013-03-10 03:16:00,40.0,38.1,29.54,South,180,0.0,0.0,93,0.00,,,0.00,WUHU216HW,2013-03-10 02:16:00,
2013-03-10 03:21:00,40.0,38.1,29.54,South,180,0.0,0.0,93,0.00,,,0.00,WUHU216HW,2013-03-10 02:21:00,
2013-03-10 03:26:00,39.8,37.9,29.54,SSE,158,0.0,1.1,93,0.00,,,0.00,WUHU216HW,2013-03-10 02:26:00,
2013-03-10 03:31:00,39.6,37.7,29.54,SSE,158,0.4,1.1,93,0.00,,,0.00,WUHU216HW,2013-03-10 02:31:00,
2013-03-10 03:36:00,39.6,37.7,29.54,SSE,158,0.0,0.4,93,0.00,,,0.00,WUHU216HW,2013-03-10 02:36:00,
2013-03-10 03:41:00,39.4,37.5,29.54,SSE,158,0.0,0.4,93,0.00,,,0.00,WUHU216HW,2013-03-10 02:41:00,
2013-03-10 03:46:00,39.2,37.4,29.54,SSE,158,0.4,0.4,93,0.00,,,0.00,WUHU216HW,2013-03-10 02:46:00,
2013-03-10 03:51:00,39.2,37.4,29.54,SSE,158,0.0,0.4,93,0.00,,,0.00,WUHU216HW,2013-03-10 02:51:00,
2013-03-10 03:57:00,39.2,37.4,29.54,SSE,158,0.0,0.4,93,0.00,,,0.00,WUHU216HW,2013-03-10 02:57:00,
2013-03-10 04:02:00,39.4,37.5,29.53,SSE,158,0.4,0.4,93,0.00,,,0.00,WUHU216HW,2013-03-10 03:02:00,
2013-03-10 04:07:00,39.4,37.5,29.54,SSE,158,0.0,0.4,93,0.00,,,0.00,WUHU216HW,2013-03-10 03:07:00,
2013-03-10 04:12:00,39.4,37.5,29.54,SSE,158,0.4,0.9,93,0.00,,,0.00,WUHU216HW,2013-03-10 03:12:00,
2013-03-10 04:17:00,39.4,37.5,29.54,SE,135,0.4,0.9,93,0.00,,,0.00,WUHU216HW,2013-03-10 03:17:00,
2013-03-10 04:22:00,39.4,37.5,29.54,ESE,113,0.4,1.1,93,0.00,,,0.00,WUHU216HW,2013-03-10 03:22:00,
2013-03-10 04:27:00,39.6,37.7,29.54,ESE,113,0.0,1.1,93,0.00,,,0.00,WUHU216HW,2013-03-10 03:27:00,
2013-03-10 04:32:00,39.6,37.7,29.54,SE,135,0.2,0.4,93,0.00,,,0.00,WUHU216HW,2013-03-10 03:32:00,
2013-03-10 04:37:00,39.6,37.7,29.54,SSW,203,0.4,0.9,93,0.00,,,0.00,WUHU216HW,2013-03-10 03:37:00,
2013-03-10 04:42:00,39.4,37.5,29.54,SSW,203,0.0,0.9,93,0.00,,,0.00,WUHU216HW,2013-03-10 03:42:00,
2013-03-10 04:47:00,39.4,37.5,29.54,SSW,203,0.0,0.4,93,0.00,,,0.00,WUHU216HW,2013-03-10 03:47:00,
2013-03-10 04:52:00,39.4,37.5,29.54,SSW,203,0.0,0.4,93,0.00,,,0.00,WUHU216HW,2013-03-10 03:52:00,
2013-03-10 04:57:00,39.4,37.5,29.54,South,180,0.0,0.2,93,0.00,,,0.00,WUHU216HW,2013-03-10 03:57:00,
2013-03-10 05:02:00,39.2,37.4,29.53,South,180,0.4,0.4,93,0.00,,,0.00,WUHU216HW,2013-03-10 04:02:00,
2013-03-10 05:07:00,39.2,37.4,29.53,South,180,0.0,0.4,93,0.00,,,0.00,WUHU216HW,2013-03-10 04:07:00,
2013-03-10 05:12:00,39.2,37.4,29.53,SSE,158,0.4,0.7,93,0.00,,,0.00,WUHU216HW,2013-03-10 04:12:00,
2013-03-10 05:17:00,39.2,37.4,29.53,SSE,158,0.0,0.7,93,0.01,,,0.00,WUHU216HW,2013-03-10 04:17:00,
2013-03-10 05:22:00,39.2,37.4,29.52,SE,135,1.6,1.6,93,0.01,,,0.00,WUHU216HW,2013-03-10 04:22:00,
2013-03-10 05:27:00,39.4,37.5,29.52,North,0,0.4,1.6,93,0.02,,,0.02,WUHU216HW,2013-03-10 04:27:00,
2013-03-10 05:32:00,39.2,37.4,29.52,SE,135,0.4,1.6,93,0.02,,,0.02,WUHU216HW,2013-03-10 04:32:00,
2013-03-10 05:37:00,39.2,37.4,29.52,SSE,158,0.0,1.1,93,0.02,,,0.02,WUHU216HW,2013-03-10 04:37:00,
2013-03-10 05:42:00,39.2,37.4,29.52,SSE,158,0.4,1.1,93,0.02,,,0.02,WUHU216HW,2013-03-10 04:42:00,
2013-03-10 05:47:00,39.4,37.5,29.52,SSE,158,0.0,0.4,93,0.02,,,0.02,WUHU216HW,2013-03-10 04:47:00,
2013-03-10 05:52:00,39.2,37.4,29.52,SE,135,1.3,1.3,93,0.02,,,0.02,WUHU216HW,2013-03-10 04:52:00,
2013-03-10 05:57:00,39.2,37.4,29.51,SE,135,0.0,1.3,93,0.02,,,0.02,WUHU216HW,2013-03-10 04:57:00,
2013-03-10 06:00:00,39.2,37.4,29.51,SE,135,0.0,1.3,93,0.02,,,0.02,WUHU216HW,2013-03-10 05:00:00,
2013-03-10 06:01:00,39.2,37.4,29.51,SE,135,0.0,1.3,93,0.02,,,0.02,WUHU216HW,2013-03-10 05:01:00,
2013-03-10 06:06:00,39.2,37.4,29.51,ENE,68,0.0,0.7,93,0.02,,,0.02,WUHU216HW,2013-03-10 05:06:00,
2013-03-10 06:11:00,39.2,37.4,29.52,ESE,113,0.0,0.7,93,0.02,,,0.02,WUHU216HW,2013-03-10 05:11:00,
2013-03-10 06:16:00,39.2,37.6,29.51,SSE,158,0.7,0.7,94,0.01,,,0.02,WUHU216HW,2013-03-10 05:16:00,
2013-03-10 06:21:00,39.2,37.4,29.51,SE,135,0.0,1.1,93,0.00,,,0.02,WUHU216HW,2013-03-10 05:21:00,
2013-03-10 06:26:00,38.9,37.0,29.51,SE,135,0.0,1.1,93,0.00,,,0.02,WUHU216HW,2013-03-10 05:26:00,
2013-03-10 06:31:00,38.9,37.3,29.51,SE,135,0.4,0.7,94,0.00,,,0.02,WUHU216HW,2013-03-10 05:31:00,
2013-03-10 06:36:00,38.9,37.0,29.51,SSE,158,0.0,0.7,93,0.00,,,0.02,WUHU216HW,2013-03-10 05:36:00,
2013-03-10 06:41:00,38.9,37.3,29.51,SSE,158,0.0,0.4,94,0.00,,,0.02,WUHU216HW,2013-03-10 05:41:00,
2013-03-10 06:46:00,38.9,37.0,29.51,SSE,158,0.4,0.4,93,0.00,,,0.02,WUHU216HW,2013-03-10 05:46:00,
2013-03-10 06:51:00,38.9,37.3,29.51,SSE,158,0.0,0.7,94,0.00,,,0.02,WUHU216HW,2013-03-10 05:51:00,
2013-03-10 06:56:00,38.9,37.3,29.51,ESE,113,0.7,0.9,94,0.00,,,0.02,WUHU216HW,2013-03-10 05:56:00,
2013-03-10 07:01:00,38.9,37.3,29.51,ESE,113,0.4,1.1,94,0.00,,,0.02,WUHU216HW,2013-03-10 06:01:00,
2013-03-10 07:06:00,38.9,37.3,29.51,SE,135,0.4,1.1,94,0.00,,,0.02,WUHU216HW,2013-03-10 06:06:00,
2013-03-10 07:11:00,38.9,37.3,29.51,SE,135,0.0,1.1,94,0.00,,,0.02,WUHU216HW,2013-03-10 06:11:00,
2013-03-10 07:16:00,39.1,37.4,29.51,SE,135,0.4,0.7,94,0.00,,,0.02,WUHU216HW,2013-03-10 06:16:00,
2013-03-10 07:21:00,39.2,37.6,29.51,SE,135,0.0,0.7,94,0.00,,,0.02,WUHU216HW,2013-03-10 06:21:00,
2013-03-10 07:26:00,39.2,37.6,29.51,North,0,0.0,0.4,94,0.00,,,0.02,WUHU216HW,2013-03-10 06:26:00,
2013-03-10 07:31:00,39.4,37.8,29.51,North,0,0.7,1.1,94,0.00,,,0.02,WUHU216HW,2013-03-10 06:31:00,
2013-03-10 07:36:00,39.4,37.8,29.51,North,0,0.0,1.1,94,0.00,,,0.02,WUHU216HW,2013-03-10 06:36:00,
2013-03-10 07:41:00,39.4,37.8,29.51,WSW,248,0.0,0.7,94,0.00,,,0.02,WUHU216HW,2013-03-10 06:41:00,
2013-03-10 07:46:00,39.4,37.8,29.51,ESE,113,0.7,0.9,94,0.00,,,0.02,WUHU216HW,2013-03-10 06:46:00,
2013-03-10 07:51:00,39.6,38.0,29.50,SSE,158,0.0,1.1,94,0.00,,,0.02,WUHU216HW,2013-03-10 06:51:00,
2013-03-10 07:56:00,40.0,38.3,29.50,South,180,0.0,1.1,94,0.00,,,0.02,WUHU216HW,2013-03-10 06:56:00,
2013-03-10 08:01:00,40.1,38.5,29.50,NNW,338,0.4,1.1,94,0.00,,,0.02,WUHU216HW,2013-03-10 07:01:00,
2013-03-10 08:06:00,40.5,39.2,29.51,NW,315,0.7,1.1,95,0.00,,,0.02,WUHU216HW,2013-03-10 07:06:00,
2013-03-10 08:11:00,40.5,39.2,29.51,NW,315,0.4,1.1,95,0.00,,,0.02,WUHU216HW,2013-03-10 07:11:00,
2013-03-10 08:16:00,40.5,39.2,29.51,NNW,338,0.0,0.7,95,0.00,,,0.02,WUHU216HW,2013-03-10 07:16:00,
2013-03-10 08:21:00,40.7,39.3,29.51,NNW,338,0.0,0.7,95,0.00,,,0.02,WUHU216HW,2013-03-10 07:21:00,
2013-03-10 08:26:00,40.7,39.3,29.51,NNW,338,0.0,0.0,95,0.00,,,0.02,WUHU216HW,2013-03-10 07:26:00,
2013-03-10 08:31:00,40.7,39.3,29.51,NE,45,0.4,0.7,95,0.00,,,0.02,WUHU216HW,2013-03-10 07:31:00,
2013-03-10 08:36:00,40.9,39.5,29.50,NE,45,0.0,0.7,95,0.00,,,0.02,WUHU216HW,2013-03-10 07:36:00,
2013-03-10 08:41:00,41.0,39.7,29.51,North,0,0.4,0.7,95,0.00,,,0.02,WUHU216HW,2013-03-10 07:41:00,
2013-03-10 08:46:00,41.4,40.1,29.51,NNW,338,0.4,0.9,95,0.00,,,0.02,WUHU216HW,2013-03-10 07:46:00,
2013-03-10 08:51:00,41.9,40.6,29.51,NW,315,0.0,0.9,95,0.00,,,0.02,WUHU216HW,2013-03-10 07:51:00,
2013-03-10 08:57:00,42.5,41.1,29.51,NW,315,0.7,1.1,95,0.00,,,0.02,WUHU216HW,2013-03-10 07:57:00,
2013-03-10 09:02:00,43.2,41.9,29.51,WNW,293,1.6,1.8,95,0.00,,,0.02,WUHU216HW,2013-03-10 08:02:00,
2013-03-10 09:07:00,43.9,42.6,29.51,West,270,1.1,1.8,95,0.00,,,0.02,WUHU216HW,2013-03-10 08:07:00,
2013-03-10 09:12:00,44.6,43.3,29.51,SW,225,2.5,2.7,95,0.00,,,0.02,WUHU216HW,2013-03-10 08:12:00,
2013-03-10 09:17:00,45.2,43.8,29.51,WSW,248,4.0,4.0,95,0.00,,,0.02,WUHU216HW,2013-03-10 08:17:00,
2013-03-10 09:22:00,45.7,44.1,29.50,West,270,3.4,4.0,94,0.00,,,0.02,WUHU216HW,2013-03-10 08:22:00,
2013-03-10 09:27:00,45.9,44.3,29.51,West,270,1.1,3.4,94,0.00,,,0.02,WUHU216HW,2013-03-10 08:27:00,
2013-03-10 09:32:00,45.9,44.3,29.50,West,270,1.3,3.4,94,0.00,,,0.02,WUHU216HW,2013-03-10 08:32:00,
2013-03-10 09:37:00,46.1,44.5,29.51,West,270,2.5,3.4,94,0.00,,,0.02,WUHU216HW,2013-03-10 08:37:00,
2013-03-10 09:42:00,46.3,44.6,29.51,West,270,2.7,4.0,94,0.00,,,0.02,WUHU216HW,2013-03-10 08:42:00,
2013-03-10 09:47:00,46.8,45.2,29.50,WSW,248,2.2,4.0,94,0.00,,,0.02,WUHU216HW,2013-03-10 08:47:00,
2013-03-10 09:52:00,47.2,45.8,29.51,West,270,4.3,4.3,95,0.00,,,0.02,WUHU216HW,2013-03-10 08:52:00,
2013-03-10 09:57:00,47.3,46.0,29.50,WNW,293,4.0,4.3,95,0.00,,,0.02,WUHU216HW,2013-03-10 08:57:00,
2013-03-10 10:02:00,47.5,45.9,29.50,WSW,248,3.1,4.0,94,0.00,,,0.02,WUHU216HW,2013-03-10 09:02:00,
2013-03-10 10:07:00,47.7,46.1,29.50,NW,315,2.0,3.4,94,0.00,,,0.02,WUHU216HW,2013-03-10 09:07:00,
2013-03-10 10:12:00,47.9,46.3,29.50,WNW,293,3.8,4.3,94,0.00,,,0.02,WUHU216HW,2013-03-10 09:12:00,
2013-03-10 10:17:00,48.4,46.8,29.50,WSW,248,2.7,5.6,94,0.00,,,0.02,WUHU216HW,2013-03-10 09:17:00,
2013-03-10 10:22:00,48.6,46.5,29.50,West,270,3.6,7.2,92,0.00,,,0.02,WUHU216HW,2013-03-10 09:22:00,
2013-03-10 10:27:00,48.8,46.6,29.50,WNW,293,3.6,7.2,92,0.00,,,0.02,WUHU216HW,2013-03-10 09:27:00,
2013-03-10 10:32:00,49.0,46.4,29.50,WNW,293,2.5,4.5,91,0.00,,,0.02,WUHU216HW,2013-03-10 09:32:00,
2013-03-10 10:37:00,49.1,46.6,29.50,WSW,248,2.7,4.5,91,0.00,,,0.02,WUHU216HW,2013-03-10 09:37:00,
2013-03-10 10:42:00,49.3,46.8,29.50,WSW,248,2.0,4.3,91,0.00,,,0.02,WUHU216HW,2013-03-10 09:42:00,
2013-03-10 10:48:00,49.9,47.0,29.50,WSW,248,4.0,4.3,90,0.00,,,0.02,WUHU216HW,2013-03-10 09:48:00,
2013-03-10 10:53:00,49.9,46.4,29.50,WSW,248,3.8,4.7,88,0.00,,,0.02,WUHU216HW,2013-03-10 09:53:00,
2013-03-10 10:58:00,49.7,46.3,29.50,WSW,248,3.1,4.7,88,0.00,,,0.02,WUHU216HW,2013-03-10 09:58:00,
2013-03-10 11:03:00,49.7,46.3,29.50,WSW,248,4.0,5.1,88,0.00,,,0.02,WUHU216HW,2013-03-10 10:03:00,
2013-03-10 11:08:00,50.0,46.5,29.50,West,270,2.2,5.4,88,0.00,,,0.02,WUHU216HW,2013-03-10 10:08:00,
2013-03-10 11:13:00,50.4,46.9,29.50,WNW,293,4.9,6.7,88,0.00,,,0.02,WUHU216HW,2013-03-10 10:13:00,
2013-03-10 11:18:00,50.8,47.0,29.50,West,270,3.8,6.7,87,0.00,,,0.02,WUHU216HW,2013-03-10 10:18:00,
2013-03-10 11:23:00,50.9,47.2,29.50,West,270,5.4,5.8,87,0.00,,,0.02,WUHU216HW,2013-03-10 10:23:00,
2013-03-10 11:28:00,51.3,47.2,29.50,West,270,6.3,6.3,86,0.00,,,0.02,WUHU216HW,2013-03-10 10:28:00,
2013-03-10 11:33:00,51.8,47.7,29.50,WNW,293,4.3,6.3,86,0.00,,,0.02,WUHU216HW,2013-03-10 10:33:00,
2013-03-10 11:38:00,52.2,47.8,29.50,WNW,293,4.7,5.6,85,0.00,,,0.02,WUHU216HW,2013-03-10 10:38:00,
2013-03-10 11:43:00,52.2,47.5,29.50,West,270,4.0,6.0,84,0.00,,,0.02,WUHU216HW,2013-03-10 10:43:00,
2013-03-10 11:48:00,52.4,47.7,29.50,West,270,4.7,6.0,84,0.00,,,0.02,WUHU216HW,2013-03-10 10:48:00,
2013-03-10 11:53:00,52.0,47.4,29.50,WNW,293,3.1,4.7,84,0.00,,,0.02,WUHU216HW,2013-03-10 10:53:00,
2013-03-10 11:58:00,51.8,47.2,29.50,NW,315,3.6,4.9,84,0.00,,,0.02,WUHU216HW,2013-03-10 10:58:00,
2013-03-10 12:03:00,52.0,47.0,29.50,West,270,3.1,4.9,83,0.00,,,0.02,WUHU216HW,2013-03-10 11:03:00,
2013-03-10 12:09:00,52.0,47.0,29.50,SW,225,4.0,4.5,83,0.00,,,0.02,WUHU216HW,2013-03-10 11:09:00,
2013-03-10 12:14:00,51.8,46.5,29.50,West,270,4.0,4.5,82,0.00,,,0.02,WUHU216HW,2013-03-10 11:14:00,
2013-03-10 12:19:00,52.0,47.0,29.50,West,270,3.4,4.5,83,0.00,,,0.02,WUHU216HW,2013-03-10 11:19:00,
2013-03-10 12:24:00,51.8,46.5,29.50,WNW,293,3.8,4.9,82,0.00,,,0.02,WUHU216HW,2013-03-10 11:24:00,
2013-03-10 12:29:00,51.7,46.4,29.50,West,270,3.6,6.5,82,0.00,,,0.02,WUHU216HW,2013-03-10 11:29:00,
2013-03-10 12:34:00,51.5,46.2,29.49,West,270,4.3,6.5,82,0.00,,,0.02,WUHU216HW,2013-03-10 11:34:00,
2013-03-10 12:39:00,51.5,46.2,29.49,West,270,4.9,5.1,82,0.00,,,0.02,WUHU216HW,2013-03-10 11:39:00,
2013-03-10 12:44:00,51.5,46.2,29.50,WNW,293,6.7,6.7,82,0.00,,,0.02,WUHU216HW,2013-03-10 11:44:00,
2013-03-10 12:50:00,51.7,46.4,29.50,WNW,293,6.0,7.8,82,0.00,,,0.02,WUHU216HW,2013-03-10 11:50:00,
2013-03-10 12:55:00,51.8,46.5,29.49,WNW,293,6.7,7.8,82,0.00,,,0.02,WUHU216HW,2013-03-10 11:55:00,
2013-03-10 13:00:00,52.4,47.1,29.49,WNW,293,3.4,7.4,82,0.00,,,0.02,WUHU216HW,2013-03-10 12:00:00,
2013-03-10 13:05:00,52.7,47.1,29.49,West,270,2.5,6.7,81,0.00,,,0.02,WUHU216HW,2013-03-10 12:05:00,
2013-03-10 13:10:00,53.1,47.2,29.49,WSW,248,4.0,4.9,80,0.00,,,0.02,WUHU216HW,2013-03-10 12:10:00,
2013-03-10 13:15:00,52.9,46.6,29.48,West,270,3.1,4.7,79,0.00,,,0.02,WUHU216HW,2013-03-10 12:15:00,
2013-03-10 13:20:00,52.9,46.6,29.48,SW,225,3.1,4.3,79,0.00,,,0.02,WUHU216HW,2013-03-10 12:20:00,
2013-03-10 13:25:00,52.9,46.6,29.48,West,270,2.5,4.3,79,0.00,,,0.02,WUHU216HW,2013-03-10 12:25:00,
2013-03-10 13:30:00,53.1,46.4,29.48,WSW,248,2.9,4.7,78,0.00,,,0.02,WUHU216HW,2013-03-10 12:30:00,
2013-03-10 13:35:00,53.3,46.3,29.48,West,270,4.0,5.1,77,0.00,,,0.02,WUHU216HW,2013-03-10 12:35:00,
2013-03-10 13:40:00,53.3,45.9,29.48,SW,225,4.9,6.3,76,0.00,,,0.02,WUHU216HW,2013-03-10 12:40:00,
2013-03-10 13:46:00,53.5,46.4,29.47,WSW,248,4.9,7.2,77,0.00,,,0.02,WUHU216HW,2013-03-10 12:46:00,
2013-03-10 13:51:00,53.6,45.9,29.47,WNW,293,3.6,7.2,75,0.00,,,0.02,WUHU216HW,2013-03-10 12:51:00,
2013-03-10 13:56:00,53.8,46.1,29.47,West,270,5.6,6.5,75,0.00,,,0.02,WUHU216HW,2013-03-10 12:56:00,
2013-03-10 14:01:00,54.2,46.5,29.47,West,270,3.4,5.8,75,0.00,,,0.02,WUHU216HW,2013-03-10 13:01:00,
2013-03-10 14:06:00,54.4,46.6,29.47,West,270,2.2,5.6,75,0.00,,,0.02,WUHU216HW,2013-03-10 13:06:00,
2013-03-10 14:11:00,54.4,46.6,29.47,WSW,248,2.9,4.9,75,0.00,,,0.02,WUHU216HW,2013-03-10 13:11:00,
2013-03-10 14:16:00,54.4,46.6,29.47,WSW,248,5.4,6.9,75,0.00,,,0.02,WUHU216HW,2013-03-10 13:16:00,
2013-03-10 14:21:00,54.5,46.8,29.47,West,270,2.0,6.9,75,0.00,,,0.02,WUHU216HW,2013-03-10 13:21:00,
2013-03-10 14:26:00,54.7,46.9,29.47,West,270,1.6,5.4,75,0.00,,,0.02,WUHU216HW,2013-03-10 13:26:00,
2013-03-10 14:31:00,54.9,46.7,29.47,West,270,5.6,5.6,74,0.00,,,0.02,WUHU216HW,2013-03-10 13:31:00,
2013-03-10 14:36:00,54.7,45.9,29.47,WNW,293,2.2,6.0,72,0.00,,,0.02,WUHU216HW,2013-03-10 13:36:00,
2013-03-10 14:41:00,54.9,46.5,29.47,WSW,248,2.7,6.0,73,0.00,,,0.02,WUHU216HW,2013-03-10 13:41:00,
2013-03-10 14:46:00,55.1,46.6,29.47,WSW,248,1.8,5.6,73,0.00,,,0.02,WUHU216HW,2013-03-10 13:46:00,
2013-03-10 14:52:00,55.1,46.6,29.47,WSW,248,2.2,4.7,73,0.00,,,0.02,WUHU216HW,2013-03-10 13:52:00,
2013-03-10 14:57:00,54.7,46.3,29.46,WSW,248,0.9,4.0,73,0.00,,,0.02,WUHU216HW,2013-03-10 13:57:00,
2013-03-10 15:02:00,54.9,46.5,29.46,WNW,293,2.7,3.4,73,0.00,,,0.02,WUHU216HW,2013-03-10 14:02:00,
2013-03-10 15:07:00,55.1,45.9,29.46,West,270,4.3,4.3,71,0.00,,,0.02,WUHU216HW,2013-03-10 14:07:00,
2013-03-10 15:12:00,55.3,45.3,29.46,WNW,293,6.3,6.7,69,0.00,,,0.02,WUHU216HW,2013-03-10 14:12:00,
2013-03-10 15:17:00,55.3,45.3,29.46,West,270,2.5,6.7,69,0.00,,,0.02,WUHU216HW,2013-03-10 14:17:00,
2013-03-10 15:22:00,54.9,45.4,29.46,West,270,2.5,5.6,70,0.00,,,0.02,WUHU216HW,2013-03-10 14:22:00,
2013-03-10 15:27:00,54.5,45.0,29.46,West,270,3.4,3.8,70,0.00,,,0.02,WUHU216HW,2013-03-10 14:27:00,
2013-03-10 15:32:00,54.5,45.4,29.46,WSW,248,1.8,3.8,71,0.00,,,0.02,WUHU216HW,2013-03-10 14:32:00,
2013-03-10 15:37:00,54.5,45.4,29.46,WSW,248,4.7,4.7,71,0.00,,,0.02,WUHU216HW,2013-03-10 14:37:00,
2013-03-10 15:43:00,54.4,44.8,29.45,West,270,3.4,4.7,70,0.00,,,0.02,WUHU216HW,2013-03-10 14:43:00,
2013-03-10 15:48:00,54.4,45.2,29.45,WNW,293,3.1,4.0,71,0.00,,,0.02,WUHU216HW,2013-03-10 14:48:00,
2013-03-10 15:53:00,54.7,45.6,29.45,West,270,2.2,4.7,71,0.00,,,0.02,WUHU216HW,2013-03-10 14:53:00,
2013-03-10 15:58:00,54.7,45.2,29.45,West,270,2.9,4.7,70,0.00,,,0.02,WUHU216HW,2013-03-10 14:58:00,
2013-03-10 16:03:00,54.7,45.2,29.45,WSW,248,2.2,4.7,70,0.00,,,0.02,WUHU216HW,2013-03-10 15:03:00,
2013-03-10 16:08:00,54.4,44.8,29.45,WSW,248,2.0,5.6,70,0.00,,,0.02,WUHU216HW,2013-03-10 15:08:00,
2013-03-10 16:13:00,54.2,44.6,29.45,WSW,248,3.8,5.6,70,0.00,,,0.02,WUHU216HW,2013-03-10 15:13:00,
2013-03-10 16:18:00,53.8,44.3,29.45,West,270,1.8,5.6,70,0.00,,,0.02,WUHU216HW,2013-03-10 15:18:00,
2013-03-10 16:23:00,53.6,44.5,29.45,West,270,2.2,3.8,71,0.00,,,0.02,WUHU216HW,2013-03-10 15:23:00,
2013-03-10 16:28:00,53.5,43.9,29.45,WNW,293,2.7,2.7,70,0.00,,,0.02,WUHU216HW,2013-03-10 15:28:00,
2013-03-10 16:33:00,53.1,43.2,29.45,West,270,3.8,4.0,69,0.00,,,0.02,WUHU216HW,2013-03-10 15:33:00,
2013-03-10 16:38:00,52.9,43.5,29.45,WSW,248,2.9,4.0,70,0.00,,,0.02,WUHU216HW,2013-03-10 15:38:00,
2013-03-10 16:43:00,52.4,42.9,29.44,SW,225,3.4,4.0,70,0.00,,,0.02,WUHU216HW,2013-03-10 15:43:00,
2013-03-10 16:48:00,52.0,43.0,29.44,WSW,248,1.8,3.6,71,0.00,,,0.02,WUHU216HW,2013-03-10 15:48:00,
2013-03-10 16:53:00,51.7,42.7,29.44,SW,225,2.7,3.6,71,0.00,,,0.02,WUHU216HW,2013-03-10 15:53:00,
2013-03-10 16:58:00,51.5,42.9,29.44,SSW,203,1.6,3.6,72,0.00,,,0.02,WUHU216HW,2013-03-10 15:58:00,
2013-03-10 17:03:00,51.1,42.5,29.44,SW,225,2.0,2.9,72,0.00,,,0.02,WUHU216HW,2013-03-10 16:03:00,
2013-03-10 17:08:00,51.1,42.5,29.44,SSW,203,2.0,2.5,72,0.00,,,0.02,WUHU216HW,2013-03-10 16:08:00,
2013-03-10 17:13:00,50.8,42.1,29.44,SW,225,1.8,2.5,72,0.00,,,0.02,WUHU216HW,2013-03-10 16:13:00,
2013-03-10 17:18:00,50.8,42.1,29.44,SSW,203,1.6,2.0,72,0.00,,,0.02,WUHU216HW,2013-03-10 16:18:00,
2013-03-10 17:23:00,50.6,42.0,29.44,SSE,158,1.3,1.8,72,0.00,,,0.02,WUHU216HW,2013-03-10 16:23:00,
2013-03-10 17:28:00,50.4,41.8,29.44,SE,135,1.8,1.8,72,0.00,,,0.02,WUHU216HW,2013-03-10 16:28:00,
2013-03-10 17:33:00,50.0,41.4,29.44,SSE,158,1.1,1.8,72,0.00,,,0.02,WUHU216HW,2013-03-10 16:33:00,
2013-03-10 17:38:00,49.9,41.2,29.44,SSE,158,1.6,2.0,72,0.00,,,0.02,WUHU216HW,2013-03-10 16:38:00,
2013-03-10 17:43:00,49.5,41.1,29.44,SSE,158,1.6,2.0,73,0.00,,,0.02,WUHU216HW,2013-03-10 16:43:00,
2013-03-10 17:48:00,49.1,40.8,29.44,SSE,158,2.7,2.7,73,0.00,,,0.02,WUHU216HW,2013-03-10 16:48:00,
2013-03-10 17:53:00,48.6,40.2,29.44,South,180,2.5,2.7,73,0.00,,,0.02,WUHU216HW,2013-03-10 16:53:00,
2013-03-10 17:58:00,48.2,39.9,29.44,SSE,158,2.2,2.7,73,0.00,,,0.02,WUHU216HW,2013-03-10 16:58:00,
2013-03-10 18:03:00,48.1,39.8,29.44,SSW,203,1.8,3.1,73,0.00,,,0.02,WUHU216HW,2013-03-10 17:03:00,
2013-03-10 18:08:00,48.1,39.8,29.44,SSW,203,2.5,3.1,73,0.00,,,0.02,WUHU216HW,2013-03-10 17:08:00,
2013-03-10 18:13:00,47.9,39.6,29.44,SSE,158,2.7,2.7,73,0.00,,,0.02,WUHU216HW,2013-03-10 17:13:00,
2013-03-10 18:18:00,47.5,39.6,29.44,SSE,158,2.9,2.9,74,0.00,,,0.02,WUHU216HW,2013-03-10 17:18:00,
2013-03-10 18:24:00,47.3,39.4,29.44,SSW,203,0.7,2.9,74,0.00,,,0.02,WUHU216HW,2013-03-10 17:24:00,
2013-03-10 18:29:00,47.3,39.4,29.44,SSW,203,1.6,2.9,74,0.00,,,0.02,WUHU216HW,2013-03-10 17:29:00,
2013-03-10 18:34:00,47.2,39.6,29.44,SW,225,1.8,1.8,75,0.00,,,0.02,WUHU216HW,2013-03-10 17:34:00,
2013-03-10 18:39:00,46.8,39.3,29.44,SSE,158,1.8,1.8,75,0.00,,,0.02,WUHU216HW,2013-03-10 17:39:00,
2013-03-10 18:44:00,46.8,39.6,29.45,SSW,203,1.8,1.8,76,0.00,,,0.02,WUHU216HW,2013-03-10 17:44:00,
2013-03-10 18:49:00,46.8,39.6,29.45,SSE,158,1.3,1.8,76,0.00,,,0.02,WUHU216HW,2013-03-10 17:49:00,
2013-03-10 18:54:00,46.6,39.8,29.45,SW,225,3.4,3.4,77,0.00,,,0.02,WUHU216HW,2013-03-10 17:54:00,
2013-03-10 18:59:00,46.6,40.1,29.45,SW,225,2.5,4.9,78,0.00,,,0.02,WUHU216HW,2013-03-10 17:59:00,
2013-03-10 19:04:00,46.6,39.8,29.44,SSW,203,2.7,4.9,77,0.00,,,0.02,WUHU216HW,2013-03-10 18:04:00,
2013-03-10 19:09:00,46.6,40.1,29.44,South,180,2.0,4.3,78,0.00,,,0.02,WUHU216HW,2013-03-10 18:09:00,
2013-03-10 19:14:00,46.4,40.3,29.44,SW,225,4.7,4.7,79,0.00,,,0.02,WUHU216HW,2013-03-10 18:14:00,
2013-03-10 19:19:00,46.4,40.7,29.44,WSW,248,2.5,4.7,80,0.00,,,0.02,WUHU216HW,2013-03-10 18:19:00,
2013-03-10 19:24:00,46.4,40.7,29.45,SW,225,0.4,4.7,80,0.00,,,0.02,WUHU216HW,2013-03-10 18:24:00,
2013-03-10 19:29:00,46.4,40.3,29.45,West,270,0.4,3.1,79,0.00,,,0.02,WUHU216HW,2013-03-10 18:29:00,
2013-03-10 19:34:00,46.1,40.0,29.45,SSW,203,1.3,1.6,79,0.00,,,0.02,WUHU216HW,2013-03-10 18:34:00,
2013-03-10 19:39:00,45.7,40.0,29.45,SSW,203,0.4,1.3,80,0.00,,,0.02,WUHU216HW,2013-03-10 18:39:00,
2013-03-10 19:44:00,45.5,39.8,29.45,SW,225,0.0,1.3,80,0.00,,,0.02,WUHU216HW,2013-03-10 18:44:00,
2013-03-10 19:49:00,45.2,39.4,29.45,SW,225,0.0,1.3,80,0.00,,,0.02,WUHU216HW,2013-03-10 18:49:00,
2013-03-10 19:54:00,45.0,39.5,29.45,SW,225,0.9,1.8,81,0.00,,,0.02,WUHU216HW,2013-03-10 18:54:00,
2013-03-10 19:59:00,45.0,39.5,29.44,SW,225,0.0,1.8,81,0.00,,,0.02,WUHU216HW,2013-03-10 18:59:00,
2013-03-10 20:04:00,45.0,39.5,29.44,SSW,203,0.2,0.9,81,0.00,,,0.02,WUHU216HW,2013-03-10 19:04:00,
2013-03-10 20:09:00,45.0,39.9,29.44,SW,225,0.9,3.6,82,0.00,,,0.02,WUHU216HW,2013-03-10 19:09:00,
2013-03-10 20:14:00,45.0,40.1,29.43,SSE,158,2.5,3.6,83,0.00,,,0.02,WUHU216HW,2013-03-10 19:14:00,
2013-03-10 20:19:00,45.2,41.0,29.44,SSW,203,2.9,4.5,85,0.00,,,0.02,WUHU216HW,2013-03-10 19:19:00,
2013-03-10 20:24:00,45.4,41.1,29.44,SSW,203,3.8,6.7,85,0.00,,,0.02,WUHU216HW,2013-03-10 19:24:00,
2013-03-10 20:29:00,45.5,41.3,29.44,SSW,203,4.5,6.7,85,0.00,,,0.02,WUHU216HW,2013-03-10 19:29:00,
2013-03-10 20:34:00,45.5,41.3,29.44,SW,225,4.7,5.6,85,0.00,,,0.02,WUHU216HW,2013-03-10 19:34:00,
2013-03-10 20:39:00,45.7,41.5,29.44,SSW,203,5.8,6.9,85,0.00,,,0.02,WUHU216HW,2013-03-10 19:39:00,
2013-03-10 20:44:00,45.7,41.5,29.44,SW,225,3.6,6.9,85,0.00,,,0.02,WUHU216HW,2013-03-10 19:44:00,
2013-03-10 20:49:00,45.7,41.5,29.44,SSW,203,4.7,6.3,85,0.00,,,0.02,WUHU216HW,2013-03-10 19:49:00,
2013-03-10 20:54:00,45.7,41.2,29.44,SSW,203,7.6,7.6,84,0.00,,,0.02,WUHU216HW,2013-03-10 19:54:00,
2013-03-10 20:59:00,45.7,40.9,29.44,SW,225,7.2,8.1,83,0.00,,,0.02,WUHU216HW,2013-03-10 19:59:00,
2013-03-10 21:04:00,45.9,40.8,29.44,SW,225,5.1,8.1,82,0.00,,,0.02,WUHU216HW,2013-03-10 20:04:00,
2013-03-10 21:09:00,45.9,40.4,29.44,SW,225,3.4,7.8,81,0.00,,,0.02,WUHU216HW,2013-03-10 20:09:00,
2013-03-10 21:15:00,45.9,40.4,29.45,SSW,203,5.6,6.9,81,0.00,,,0.02,WUHU216HW,2013-03-10 20:15:00,
2013-03-10 21:20:00,45.9,40.4,29.45,WSW,248,3.8,5.8,81,0.00,,,0.02,WUHU216HW,2013-03-10 20:20:00,
2013-03-10 21:25:00,45.7,40.2,29.45,WSW,248,4.3,5.6,81,0.00,,,0.02,WUHU216HW,2013-03-10 20:25:00,
2013-03-10 21:30:00,45.4,39.9,29.45,SW,225,2.2,5.4,81,0.00,,,0.02,WUHU216HW,2013-03-10 20:30:00,
2013-03-10 21:35:00,45.4,39.9,29.45,SW,225,1.1,4.3,81,0.00,,,0.02,WUHU216HW,2013-03-10 20:35:00,
2013-03-10 21:40:00,45.2,39.7,29.45,WSW,248,1.3,2.9,81,0.00,,,0.02,WUHU216HW,2013-03-10 20:40:00,
2013-03-10 21:45:00,45.2,40.1,29.45,WSW,248,1.8,2.7,82,0.00,,,0.02,WUHU216HW,2013-03-10 20:45:00,
2013-03-10 21:50:00,45.0,39.9,29.45,WSW,248,2.0,3.4,82,0.00,,,0.02,WUHU216HW,2013-03-10 20:50:00,
2013-03-10 21:55:00,45.0,39.9,29.45,SW,225,2.5,3.8,82,0.00,,,0.02,WUHU216HW,2013-03-10 20:55:00,
2013-03-10 22:00:00,45.0,40.1,29.45,SW,225,1.8,3.8,83,0.00,,,0.02,WUHU216HW,2013-03-10 21:00:00,
2013-03-10 22:05:00,45.0,40.1,29.45,WSW,248,2.0,4.0,83,0.00,,,0.02,WUHU216HW,2013-03-10 21:05:00,
2013-03-10 22:10:00,44.8,40.0,29.45,SW,225,2.5,4.0,83,0.00,,,0.02,WUHU216HW,2013-03-10 21:10:00,
2013-03-10 22:15:00,44.8,40.0,29.45,WSW,248,2.2,3.4,83,0.00,,,0.02,WUHU216HW,2013-03-10 21:15:00,
2013-03-10 22:20:00,44.8,40.0,29.45,SW,225,1.8,3.6,83,0.00,,,0.02,WUHU216HW,2013-03-10 21:20:00,
2013-03-10 22:25:00,44.8,40.3,29.45,WSW,248,2.5,3.6,84,0.00,,,0.02,WUHU216HW,2013-03-10 21:25:00,
2013-03-10 22:30:00,44.6,40.2,29.45,WSW,248,2.2,3.4,84,0.00,,,0.02,WUHU216HW,2013-03-10 21:30:00,
2013-03-10 22:35:00,44.6,40.4,29.45,West,270,2.5,3.4,85,0.00,,,0.02,WUHU216HW,2013-03-10 21:35:00,
2013-03-10 22:40:00,44.5,40.2,29.45,SW,225,2.5,2.9,85,0.00,,,0.02,WUHU216HW,2013-03-10 21:40:00,
2013-03-10 22:45:00,44.3,40.3,29.45,WSW,248,3.4,4.0,86,0.00,,,0.02,WUHU216HW,2013-03-10 21:45:00,
2013-03-10 22:50:00,44.3,40.3,29.45,WSW,248,2.5,4.0,86,0.00,,,0.02,WUHU216HW,2013-03-10 21:50:00,
2013-03-10 22:55:00,44.3,40.7,29.45,West,270,3.1,4.0,87,0.00,,,0.02,WUHU216HW,2013-03-10 21:55:00,
2013-03-10 23:00:00,44.3,40.7,29.45,WSW,248,2.5,3.8,87,0.00,,,0.02,WUHU216HW,2013-03-10 22:00:00,
2013-03-10 23:05:00,44.1,40.5,29.45,SW,225,2.5,3.4,87,0.00,,,0.02,WUHU216HW,2013-03-10 22:05:00,
2013-03-10 23:10:00,44.1,40.5,29.45,WSW,248,2.5,3.4,87,0.00,,,0.02,WUHU216HW,2013-03-10 22:10:00,
2013-03-10 23:15:00,43.9,40.3,29.45,WSW,248,1.1,2.9,87,0.00,,,0.02,WUHU216HW,2013-03-10 22:15:00,
2013-03-10 23:20:00,43.9,40.3,29.45,SW,225,1.6,2.0,87,0.00,,,0.02,WUHU216HW,2013-03-10 22:20:00,
2013-03-10 23:25:00,43.9,40.6,29.45,WSW,248,3.4,4.0,88,0.00,,,0.02,WUHU216HW,2013-03-10 22:25:00,
2013-03-10 23:30:00,43.9,40.6,29.44,WSW,248,3.8,4.7,88,0.00,,,0.02,WUHU216HW,2013-03-10 22:30:00,
2013-03-10 23:35:00,43.7,40.4,29.44,WSW,248,3.4,4.7,88,0.01,,,0.02,WUHU216HW,2013-03-10 22:35:00,
2013-03-10 23:40:00,43.7,40.4,29.45,WSW,248,3.8,4.7,88,0.01,,,0.02,WUHU216HW,2013-03-10 22:40:00,
2013-03-10 23:45:00,43.7,40.4,29.45,SW,225,3.4,4.9,88,0.01,,,0.02,WUHU216HW,2013-03-10 22:45:00,
2013-03-10 23:50:00,43.7,40.8,29.45,West,270,3.8,6.0,89,0.01,,,0.02,WUHU216HW,2013-03-10 22:50:00,
2013-03-10 23:55:00,43.7,40.4,29.45,WSW,248,2.7,6.0,88,0.01,,,0.02,WUHU216HW,2013-03-10 22:55:00,